PEGASUS DEB, 39312

Orbit data source: Space-Track

PEGASUS DEB, 39312 is space debris in LEO originally from a launch on Thu, 19 May 1994 UTC launched from the Air Force Western Test Range (AFWTR). Debris objects in space refer to the collection of defunct objects orbiting the Earth. Examples of debris include non-operational satellites, rocket bodies, and fragments generated from explosions, collisions, or faulty payload assembly.

Loading next visibility...
Identifier
39312, 1994-029AEX
Orbit
LEO
Country
Flag of USUS
Related business
Manufacturer
Unknown
Mission
Spacecraft
Bus & Motor
Unknown
Mass
Unknown
Launch date (UTC)
1994-05-19 (32 years ago)
Launch vehicle
Unknown
Launch site
Air Force Western Test Range (AFWTR)
Object type
Payload
Rocket body
Debris
Shape & HBR
Unknown shape, 0.1 m
Radar Cross Section
Small (<0.1 m²)

Expand to show TLE details & history
Last TLE update: 3 days ago

TLE from 3 days ago
0 PEGASUS DEB
1 39312U 94029AEX 26117.16430137  .00004395  00000-0  54535-3 0  9990
2 39312  81.9753  69.9515 0190483 255.3101 102.6925 14.70381972681608
Epoch: 2026-04-27T03:56Z
TLE epoch observation values (Epoch: 2026-04-27T03:56:35.638Z)
Latitude
-0°
Longitude
155.64511°
Altitude
694.731 km
Speed
7.492 km/s
True Right ascension
04h 39m 48s
True Declination
0° 00' 00"
Sunlit
Object was in daylight at epoch
Visualization orbit readout
Latitude
Unknown
Longitude
Unknown
Altitude
Unknown
Speed
Unknown
Apparent Right ascension
Unknown
Apparent Declination
Unknown
Sunlit
N/A
Visualization observer readout
Local Sidereal Time
12:53:52
Azimuth
Unknown
Elevation
Unknown
Doppler factor
Unknown
Orbital elements
Apogee altitude
790.912 km
Perigee altitude
522.901 km
Semi-major axis
7,035.044 km
Eccentricity
0.01905
Inclination
81.9753°
RAAN
69.9515°
Arg. of periapsis
255.3101°
True anomaly
104.81037°
Mean anomaly
102.6925°
Eccentric anomaly
103.7526°
Mean motion
3.67826 °/min
Orbital period
97.87 mins
BSTAR
0.00054535
Loading maneuver chart data...
Computing Atmospheric mass density...

Documentation

Showing up to 5 results
|